EHI
5 4 4 4 4 5 5 4 3 3 3 3 2 2 1 1 2 3 3 4 4 3 1 2 2 1 2 2 2 2 2 2 2 1 0 0 0 0 0 0 0 1 1
4 4 4 4 4 5 6 5 4 3 3 2 1 1 0 0 1 2 3 4 4 3 2 1 1 1 1 1 1 1 1 1 1 0 0 0 0 0 0 0 0 0 1
5 4 4 5 5 6 7 7 6 5 4 3 2 1 1 0 0 1 2 4 4 3 3 2 1 0 0 0 0 0 1 0 0 0 0 0 0 0 0 0 0 0 0
8 6 5 7 8 8 9 9 8 7 7 7 6 4 2 1 0 1 3 3 4 3 3 2 1 0 1 1 0 0 0 0 0 0 0 0 0 0 0 0 0 0 0
10 8 6 8 10 12 12 12 12 11 11 10 8 7 5 3 2 3 4 4 5 4 2 1 0 1 2 2 2 1 1 1 2 1 1 1 1 0 0 0 0 0 0
11 9 8 9 11 14 16 16 16 16 14 12 9 7 7 6 6 6 6 6 5 4 2 1 1 2 3 4 4 4 3 3 3 3 3 3 2 1 0 0 0 0 0
12 11 11 11 12 14 17 18 18 17 17 14 10 7 7 8 8 8 7 6 4 2 1 2 3 3 3 4 5 5 4 3 3 3 4 4 3 2 0 0 0 0 0
13 13 12 13 14 15 17 19 19 18 17 15 10 6 6 7 8 9 8 6 3 1 1 4 5 4 3 3 3 2 2 2 3 3 3 3 2 1 0 0 0 0 0
14 14 13 13 14 15 17 20 21 19 18 17 12 7 6 7 8 9 8 6 4 1 2 4 6 5 4 3 2 1 1 1 1 2 3 2 1 0 0 0 0 0 0
15 15 15 14 14 14 16 19 20 19 18 17 15 11 8 8 9 8 6 5 4 3 2 4 6 6 5 4 3 1 0 0 0 1 2 1 0 0 0 0 0 0 0
14 15 14 12 12 13 15 16 17 18 18 17 15 13 11 10 9 7 4 3 4 3 4 5 6 6 5 4 2 1 0 0 0 0 0 0 0 0 0 0 0 0 0
12 12 11 10 11 14 16 16 16 18 19 17 16 14 12 10 7 5 3 3 3 4 5 6 6 5 4 3 1 0 0 0 0 0 1 1 1 1 1 0 0 0 0
11 11 11 11 13 15 17 17 18 19 18 17 16 13 10 8 5 3 3 4 4 5 5 6 5 4 3 2 1 0 0 0 0 1 2 2 2 2 2 1 1 0 0
14 14 13 13 14 16 16 17 18 18 15 14 14 11 8 6 5 4 4 4 5 4 3 3 3 3 2 2 1 0 1 1 1 1 2 2 2 3 3 2 1 0 0
17 16 14 13 14 14 15 15 16 14 12 10 9 9 7 6 6 5 4 5 5 3 1 1 2 1 1 1 0 0 1 2 2 1 1 1 1 1 2 2 1 0 0
13 13 11 11 11 12 12 13 12 11 9 7 6 7 6 7 7 5 5 5 5 2 0 0 0 0 0 0 0 0 0 1 1 1 0 0 0 0 1 1 0 0 0
8 8 7 7 8 8 9 10 10 10 8 5 5 6 6 7 6 6 5 5 4 2 0 0 0 0 0 0 0 0 0 0 0 0 0 0 0 0 0 0 0 0 0
6 6 5 5 5 6 7 8 9 9 8 6 5 6 6 6 5 5 5 4 4 3 1 0 1 1 1 0 0 0 0 0 0 0 0 0 0 0 0 0 0 0 0
7 7 6 4 4 5 6 7 8 8 8 7 6 6 6 5 4 4 4 4 3 2 1 1 2 2 2 1 0 0 0 0 0 0 0 0 0 0 0 0 0 0 0
8 8 6 5 5 6 6 6 6 7 7 7 6 5 5 5 4 3 3 3 3 1 1 2 3 3 3 2 0 0 0 0 0 0 0 0 0 0 0 0 0 0 0
7 7 6 5 6 6 5 4 4 5 6 7 6 4 3 4 3 3 3 3 3 3 2 2 2 2 2 1 1 0 0 0 0 0 0 0 0 0 0 0 0 0 0
5 5 4 4 4 5 5 4 3 3 4 5 4 3 2 3 3 3 3 3 3 3 2 1 1 1 1 1 1 1 0 0 0 0 0 0 0 0 0 0 0 0 0
4 4 3 2 2 3 5 5 4 3 3 3 3 2 2 3 3 3 3 3 3 3 1 0 0 0 0 1 1 1 0 0 0 0 0 0 0 0 0 0 0 0 0
3 3 4 3 2 2 4 5 4 3 3 3 3 1 1 2 3 2 3 3 3 2 1 0 0 0 0 0 0 0 0 0 0 0 0 0 0 0 0 0 0 0 0
2 3 4 4 3 2 2 3 3 3 4 3 3 2 1 1 1 1 1 2 1 1 0 0 0 0 0 0 0 0 0 0 0 0 0 0 0 0 0 0 0 0 0
2 2 4 5 5 3 2 2 3 4 4 4 3 2 1 1 0 0 0 1 0 0 0 0 0 0 0 0 0 0 0 0 0 0 0 0 0 0 0 0 0 0 0
Wind_Speed
7 7 8 8 7 5 4 4 4 3 2 2 2 2 1 1 1 1 1 2 1 2 2 2 2 2 2 1 1 1 1 1 1 2 2 2 1 1 1 1 2 3 3
6 7 7 7 7 6 4 4 4 3 3 2 2 2 2 1 1 1 1 1 2 1 2 2 1 1 1 2 2 1 1 1 1 2 1 1 3 2 1 1 2 2 2
10 8 7 7 7 6 6 5 4 4 3 2 2 2 2 2 2 1 1 1 1 2 2 2 2 1 1 1 1 1 1 0 1 1 2 2 2 2 2 1 2 2 2
9 8 8 8 8 8 6 5 5 4 3 3 3 4 3 2 1 1 0 1 1 1 1 1 1 1 1 1 1 1 1 1 0 1 0 1 3 2 1 3 2 2 2
11 11 10 10 9 7 6 5 4 4 3 3 4 3 2 1 1 1 1 1 1 1 1 1 1 1 1 1 1 1 1 1 1 0 0 0 0 1 2 2 3 2 2
10 9 9 8 7 6 6 5 5 4 3 3 3 4 3 3 2 2 1 0 0 1 1 1 1 1 1 1 1 1 1 1 1 1 1 1 0 1 1 2 2 2 3
8 8 8 8 8 8 7 6 6 4 4 4 3 3 3 4 4 2 2 1 0 0 1 0 0 0 1 1 1 1 1 0 1 0 0 0 1 1 1 1 1 2 2
8 8 9 8 8 8 8 7 6 5 4 4 3 2 3 2 2 2 2 2 1 1 0 0 1 1 1 1 1 1 0 0 0 0 0 0 1 0 1 1 1 1 2
9 8 8 8 7 7 7 8 7 5 4 4 3 2 2 2 2 2 2 1 1 1 1 1 1 1 1 1 1 1 0 0 0 0 0 0 1 0 0 1 1 2 1
8 7 7 7 7 6 6 6 6 6 4 4 3 3 2 2 2 2 2 2 1 1 1 1 1 1 1 1 1 1 1 1 1 0 1 1 1 1 1 1 1 1 3
7 6 6 6 6 6 6 5 5 5 4 4 3 3 2 2 2 2 2 1 1 1 1 1 1 1 1 1 1 0 0 1 1 1 1 1 1 1 1 1 1 1 2
7 6 6 6 6 6 6 6 5 5 5 4 4 3 3 3 2 2 1 1 1 1 1 1 1 0 0 0 1 1 0 0 0 1 1 2 1 1 1 1 1 1 1
7 6 5 5 5 5 5 5 5 5 4 4 5 3 3 3 2 1 1 1 1 1 1 1 1 1 1 1 1 1 1 1 1 1 1 2 1 2 2 1 1 1 1
7 6 5 4 4 4 5 5 4 4 5 4 5 4 3 2 2 2 2 1 1 1 1 0 0 1 1 1 1 1 1 1 1 1 2 2 2 3 3 2 2 1 1
7 7 6 5 5 4 4 5 4 4 4 4 4 3 2 2 2 2 2 1 1 2 1 1 1 1 0 0 0 1 1 1 1 2 2 2 2 3 2 2 2 2 1
8 7 7 7 6 6 5 5 4 4 4 4 3 3 2 2 1 1 2 1 1 1 2 2 1 1 1 2 1 0 1 1 1 2 3 3 3 3 3 3 2 2 2
8 8 7 7 6 6 6 6 5 5 4 4 3 3 2 2 1 1 1 1 1 1 1 0 1 1 2 3 2 1 0 1 2 2 2 2 2 2 2 3 3 3 3
8 7 7 6 5 5 5 5 5 5 4 4 3 3 2 2 1 1 1 1 1 1 1 1 0 0 2 3 2 2 1 1 1 2 2 1 2 2 1 1 2 3 4
6 6 6 6 5 5 5 5 4 4 4 4 3 3 3 2 2 1 2 2 1 1 1 1 1 0 2 3 3 3 1 1 2 2 2 1 2 4 2 1 2 4 5
5 5 5 6 5 4 5 5 4 4 3 3 4 3 4 4 3 3 2 2 2 1 1 1 1 0 1 2 4 3 1 1 2 3 3 4 3 4 3 1 2 4 5
6 6 6 5 5 5 6 5 4 4 4 3 3 2 3 3 3 2 2 2 1 1 1 1 1 1 0 1 3 3 1 0 1 2 3 3 5 5 4 3 3 5 5
5 6 5 4 3 5 6 5 4 3 2 2 2 2 2 2 2 2 2 1 1 1 1 0 1 1 1 1 2 2 2 1 1 2 3 3 5 6 6 4 4 5 4
5 4 5 4 3 4 5 5 4 3 3 2 2 2 2 2 2 3 2 2 2 2 1 1 1 2 2 2 3 3 3 3 1 2 4 5 6 5 4 5 5 4 1
5 4 5 4 2 2 3 4 4 4 4 3 2 2 2 1 1 1 2 2 2 2 2 2 2 2 2 2 2 2 2 3 3 3 4 6 6 4 4 4 4 2 1
3 4 4 4 3 3 2 3 3 4 3 2 2 2 2 2 2 1 1 3 3 4 4 3 3 2 2 4 4 1 2 2 2 2 2 2 3 3 3 3 3 3 2
3 3 3 3 2 3 2 2 3 4 4 2 2 2 2 1 2 2 0 2 1 3 4 4 4 3 4 3 3 2 2 2 1 2 1 2 2 2 3 3 3 3 3
Wind_Direction
158 148 146 142 133 128 122 133 126 125 115 107 109 105 103 93 72 74 86 89 86 82 75 62 52 64 81 89 75 91 78 37 80 75 22 358 1 176 197 198 189 204 203
152 153 150 144 143 149 147 144 144 141 138 145 149 140 137 131 129 62 51 64 74 76 84 81 76 69 80 63 50 66 85 26 68 116 99 5 346 335 270 201 193 206 194
163 162 159 157 157 163 165 162 164 154 154 141 109 92 66 52 52 41 51 51 82 85 75 83 94 87 96 94 67 76 113 142 337 114 139 149 224 298 315 275 231 199 193
164 164 164 165 171 176 172 163 162 156 155 142 130 132 136 145 183 162 116 47 57 71 77 81 88 96 94 88 62 70 89 119 332 314 321 165 163 165 294 316 295 237 208
168 171 175 175 174 173 169 164 155 149 147 141 145 146 145 161 135 107 93 46 21 36 64 76 80 89 100 114 67 59 77 101 125 139 306 355 37 127 160 276 309 311 262
166 172 174 169 167 165 162 159 151 154 152 144 140 147 147 141 122 121 129 104 4 352 1 78 73 85 99 116 125 106 96 95 103 91 79 115 143 226 177 223 263 279 281
158 163 163 168 168 166 166 165 158 163 162 151 149 154 150 145 148 158 157 156 137 325 302 30 60 66 112 124 121 111 100 96 107 119 146 150 208 210 183 187 245 267 289
166 171 168 168 167 168 168 166 164 165 162 160 162 156 148 150 157 162 160 169 181 206 218 86 72 66 76 88 94 96 148 103 144 324 229 215 273 233 177 189 190 274 306
173 172 166 163 161 162 165 164 160 155 156 158 145 139 146 144 151 152 141 144 147 128 85 83 70 53 63 71 87 73 6 35 252 268 289 297 285 273 251 205 181 179 230
168 161 159 156 156 159 157 156 155 158 152 139 140 138 143 145 146 130 122 117 117 106 90 73 71 67 66 65 85 73 28 47 341 321 355 317 295 299 307 288 244 192 189
162 152 148 148 146 141 142 148 153 143 139 144 138 128 123 121 123 125 129 136 133 129 120 105 95 86 78 85 94 62 56 71 0 347 348 295 293 307 311 309 292 241 192
147 141 142 141 139 140 140 144 147 145 150 145 134 130 121 110 105 108 118 132 146 158 160 151 140 132 50 89 153 235 291 190 270 283 288 292 299 304 289 281 280 259 217
131 127 132 144 149 146 148 147 142 142 140 131 125 119 111 109 116 124 119 115 121 128 141 141 167 225 244 238 214 201 236 235 248 262 254 262 274 284 277 268 271 276 274
131 127 127 131 128 133 138 137 134 134 133 130 128 130 134 139 145 133 112 100 104 94 61 65 213 238 246 241 217 193 211 256 276 275 260 255 245 244 251 255 250 249 268
140 140 145 142 136 129 128 129 129 127 127 122 127 138 154 151 136 129 118 107 107 97 84 56 31 3 331 284 240 201 201 228 272 286 277 270 272 267 255 252 232 217 211
156 152 149 146 146 143 142 141 137 131 128 131 137 146 141 135 145 151 141 129 118 102 85 67 40 14 354 2 2 85 230 256 263 278 288 291 289 295 288 290 270 212 202
157 156 157 154 149 149 151 155 152 144 138 141 144 147 143 136 152 158 140 171 172 125 107 93 62 359 338 2 10 13 184 257 264 262 279 304 325 333 303 312 325 303 277
163 163 158 155 153 150 150 146 139 138 133 135 143 151 149 150 156 155 172 196 169 147 178 208 214 323 333 359 8 16 22 332 302 274 252 264 301 313 301 300 312 293 286
160 158 156 150 150 154 150 140 135 138 138 150 164 172 171 166 173 190 209 205 171 171 210 214 209 310 327 2 24 41 32 346 316 305 296 278 285 299 308 310 291 299 302
142 141 139 133 144 158 144 136 144 150 166 180 185 181 176 180 193 202 207 196 172 202 201 221 251 246 333 7 27 43 63 358 324 324 320 314 307 308 317 289 271 286 291
135 128 129 137 158 160 146 146 157 181 192 183 175 176 181 188 194 192 191 191 182 181 187 190 256 246 291 1 25 37 76 248 301 315 309 303 312 312 306 294 265 266 277
121 121 122 133 158 157 148 152 177 194 178 164 162 176 185 197 183 184 201 197 166 157 186 179 302 296 291 320 337 346 332 317 246 274 282 296 312 315 313 302 289 291 297
127 125 132 132 142 159 157 167 184 165 152 155 179 198 194 201 189 184 190 190 178 178 206 201 239 279 291 297 315 324 318 321 308 279 294 305 309 312 312 308 307 317 324
131 125 122 127 144 174 168 173 173 161 154 172 201 200 185 198 181 182 183 180 187 190 202 211 232 257 280 289 313 319 314 328 331 322 318 319 318 321 315 322 329 331 310
138 137 140 155 173 165 165 164 153 146 151 172 192 192 192 183 177 182 201 198 207 196 188 202 202 209 259 266 265 261 284 295 299 326 343 356 354 349 346 345 342 343 352
133 133 142 154 168 157 160 161 153 149 151 165 190 191 193 180 169 163 7 343 261 223 199 195 191 216 231 269 290 299 307 314 358 56 7 343 340 330 332 337 335 335 335